Cambridge, MD

12:04 AM EDT on September 30, 2016 (GMT -0400)
Cambridge-Dorchester

Weather History for KCGE - January, 2014

Change the Weather History Date:

Friday, January 24, 2014

  Actual Average (KESN) Record (KESN)
Temperature  
Mean Temperature 20 °F -  
Max Temperature 24 °F 49 °F 69 °F (1967)
Min Temperature 17 °F 29 °F 6 °F (1963)
Degree Days  
Heating Degree Days 44    
Moisture  
Dew Point 1 °F    
Average Humidity 44    
Maximum Humidity 58    
Minimum Humidity 31    
Precipitation  
Precipitation 0.00 in - - ()
Sea Level Pressure  
Sea Level Pressure 30.40 in    
Wind  
Wind Speed 11 mph (West)    
Max Wind Speed 17 mph    
Max Gust Speed 28 mph    
Visibility 10 miles    
Events      
Averages and records for this station are not official NWS values.
T = Trace of Precipitation, MM = Missing Value Source: NWS Daily Summary

Daily Weather History Graph

Daily Weather History Graph

Search for Another Location

Airport or City:

Trip Planner

Search our weather history database for the weather conditions in past years. The results will help you decide how hot, cold, wet, or windy it might be!

Date:

Astronomy

Jan. 24, 2014 Rise Set
Actual Time 7:15 AM EST 5:17 PM EST
Civil Twilight 6:47 AM EST 5:45 PM EST
Nautical Twilight 6:15 AM EST 6:17 PM EST
Astronomical Twilight 5:43 AM EST 6:49 PM EST
Moon 12:41 AM EST (1/24) 11:33 AM EST (1/24)
Length of Visible Light 10h 58m
Length of Day
10h 01m
Last Quarter, 45% of the Moon is Illuminated
Jan 24
Last Quarter
Jan 30
New
Feb 6
First Quarter
Feb 14
Full
Feb 22
Last Quarter

Hourly Weather History & Observations

Time (EST) Temp. Windchill Dew Point Humidity Pressure Visibility Wind Dir Wind Speed Gust Speed Precip Events Conditions
12:05 AM 19.4 °F 4.5 °F 1.4 °F 46% 30.41 in 10.0 mi NW 17.3 mph 23.0 mph N/A   Clear
12:25 AM 19.4 °F 6.6 °F 1.4 °F 46% 30.41 in 10.0 mi NW 12.7 mph 24.2 mph N/A   Clear
12:45 AM 19.4 °F 6.0 °F 1.4 °F 46% 30.41 in 10.0 mi NW 13.8 mph 23.0 mph N/A   Scattered Clouds
1:05 AM 19.4 °F 6.6 °F 1.4 °F 46% 30.41 in 10.0 mi NW 12.7 mph 21.9 mph N/A   Scattered Clouds
1:25 AM 19.4 °F 5.5 °F 1.4 °F 46% 30.41 in 10.0 mi NW 15.0 mph 21.9 mph N/A   Clear
1:45 AM 19.4 °F 6.0 °F 1.4 °F 46% 30.42 in 10.0 mi NW 13.8 mph 25.3 mph N/A   Clear
2:05 AM 19.4 °F 6.6 °F 1.4 °F 46% 30.42 in 10.0 mi NW 12.7 mph 27.6 mph N/A   Clear
2:25 AM 19.4 °F 5.0 °F 1.4 °F 46% 30.43 in 10.0 mi NW 16.1 mph 23.0 mph N/A   Clear
2:45 AM 17.6 °F 4.3 °F 1.4 °F 49% 30.43 in 10.0 mi NW 12.7 mph 20.7 mph N/A   Clear
3:05 AM 17.6 °F 3.2 °F 1.4 °F 49% 30.43 in 10.0 mi NW 15.0 mph 20.7 mph N/A   Clear
3:25 AM 17.6 °F 5.7 °F 1.4 °F 49% 30.43 in 10.0 mi NW 10.4 mph 21.9 mph N/A   Clear
3:45 AM 17.6 °F 6.4 °F 1.4 °F 49% 30.44 in 10.0 mi NW 9.2 mph - N/A   Clear
4:05 AM 17.6 °F 4.3 °F 1.4 °F 49% 30.44 in 10.0 mi NW 12.7 mph 19.6 mph N/A   Clear
4:25 AM 17.6 °F 4.3 °F 1.4 °F 49% 30.45 in 10.0 mi NW 12.7 mph 18.4 mph N/A   Clear
4:45 AM 17.6 °F 8.2 °F 1.4 °F 49% 30.46 in 10.0 mi NW 6.9 mph 17.3 mph N/A   Clear
5:05 AM 17.6 °F 5.7 °F 3.2 °F 53% 30.46 in 10.0 mi NW 10.4 mph 17.3 mph N/A   Clear
5:25 AM 17.6 °F 4.3 °F 3.2 °F 53% 30.47 in 10.0 mi NW 12.7 mph 20.7 mph N/A   Clear
5:45 AM 17.6 °F 5.0 °F 3.2 °F 53% 30.47 in 10.0 mi WNW 11.5 mph 18.4 mph N/A   Clear
6:05 AM 17.6 °F 4.3 °F 3.2 °F 53% 30.49 in 10.0 mi WNW 12.7 mph 17.3 mph N/A   Clear
6:26 AM 17.6 °F 5.7 °F 3.2 °F 53% 30.49 in 10.0 mi NW 10.4 mph 18.4 mph N/A   Clear
6:46 AM 17.6 °F 9.3 °F 3.2 °F 53% 30.50 in 10.0 mi NW 5.8 mph - N/A   Clear
7:06 AM 17.6 °F 4.3 °F 3.2 °F 53% 30.51 in 10.0 mi NW 12.7 mph 20.7 mph N/A   Clear
7:26 AM 17.6 °F 5.7 °F 3.2 °F 53% 30.51 in 10.0 mi NW 10.4 mph 16.1 mph N/A   Clear
7:46 AM 17.6 °F 7.3 °F 3.2 °F 53% 30.51 in 10.0 mi NW 8.1 mph - N/A   Clear
8:06 AM 17.6 °F 5.7 °F 3.2 °F 53% 30.52 in 10.0 mi NW 10.4 mph 19.6 mph N/A   Clear
8:26 AM 17.6 °F 5.7 °F 3.2 °F 53% 30.52 in 10.0 mi NW 10.4 mph 18.4 mph N/A   Clear
8:46 AM 19.4 °F 6.6 °F 3.2 °F 49% 30.52 in 10.0 mi WNW 12.7 mph - N/A   Clear
9:06 AM 19.4 °F 7.2 °F 3.2 °F 49% 30.53 in 10.0 mi NW 11.5 mph 19.6 mph N/A   Clear
9:26 AM 19.4 °F 6.0 °F 3.2 °F 49% 30.53 in 10.0 mi NW 13.8 mph 18.4 mph N/A   Clear
9:46 AM 19.4 °F 7.2 °F 3.2 °F 49% 30.54 in 10.0 mi NW 11.5 mph 16.1 mph N/A   Clear
10:06 AM 19.4 °F 6.6 °F 3.2 °F 49% 30.54 in 10.0 mi WNW 12.7 mph 19.6 mph N/A   Clear
10:26 AM 19.4 °F 6.6 °F 3.2 °F 49% 30.54 in 10.0 mi WNW 12.7 mph - N/A   Clear
10:46 AM 19.4 °F 7.9 °F 3.2 °F 49% 30.54 in 10.0 mi NW 10.4 mph 16.1 mph N/A   Clear
11:06 AM 19.4 °F 7.2 °F 1.4 °F 46% 30.53 in 10.0 mi NW 11.5 mph - N/A   Clear
11:26 AM 19.4 °F 7.2 °F 1.4 °F 46% 30.52 in 10.0 mi WNW 11.5 mph 16.1 mph N/A   Clear
11:46 AM 19.4 °F 8.6 °F 1.4 °F 46% 30.50 in 10.0 mi NW 9.2 mph - N/A   Clear
12:06 PM 21.2 °F 10.9 °F 1.4 °F 42% 30.48 in 10.0 mi WNW 9.2 mph 17.3 mph N/A   Clear
12:26 PM 21.2 °F 11.7 °F 1.4 °F 42% 30.46 in 10.0 mi WNW 8.1 mph - N/A   Clear
12:46 PM 21.2 °F 12.6 °F 1.4 °F 42% 30.45 in 10.0 mi WNW 6.9 mph 16.1 mph N/A   Clear
1:06 PM 23.0 °F 13.9 °F 1.4 °F 39% 30.43 in 10.0 mi West 8.1 mph - N/A   Clear
1:26 PM 23.0 °F 13.9 °F 1.4 °F 39% 30.42 in 10.0 mi NW 8.1 mph - N/A   Clear
1:46 PM 23.0 °F 15.8 °F -0.4 °F 36% 30.42 in 10.0 mi WNW 5.8 mph - N/A   Clear
2:06 PM 23.0 °F 15.8 °F -0.4 °F 36% 30.41 in 10.0 mi West 5.8 mph - N/A   Clear
2:26 PM 23.0 °F 15.8 °F -0.4 °F 36% 30.41 in 10.0 mi West 5.8 mph - N/A   Clear
2:46 PM 23.0 °F 14.7 °F -0.4 °F 36% 30.40 in 10.0 mi WSW 6.9 mph - N/A   Clear
3:07 PM 23.0 °F 13.9 °F -0.4 °F 36% 30.39 in 10.0 mi West 8.1 mph - N/A   Clear
3:27 PM 23.0 °F 13.9 °F -4.0 °F 31% 30.38 in 10.0 mi West 8.1 mph - N/A   Clear
3:47 PM 23.0 °F 17.0 °F -4.0 °F 31% 30.37 in 10.0 mi West 4.6 mph - N/A   Clear
4:07 PM 24.8 °F 19.1 °F -2.2 °F 31% 30.36 in 10.0 mi SW 4.6 mph - N/A   Clear
4:27 PM 23.0 °F 14.7 °F -4.0 °F 31% 30.36 in 10.0 mi SW 6.9 mph - N/A   Clear
4:47 PM 23.0 °F 17.0 °F -4.0 °F 31% 30.36 in 10.0 mi SW 4.6 mph - N/A   Clear
5:07 PM 23.0 °F 15.8 °F -0.4 °F 36% 30.35 in 10.0 mi South 5.8 mph - N/A   Clear
5:27 PM 23.0 °F 17.0 °F 1.4 °F 39% 30.35 in 10.0 mi South 4.6 mph - N/A   Clear
5:47 PM 23.0 °F - 3.2 °F 43% 30.34 in 10.0 mi Calm Calm - N/A   Clear
6:07 PM 19.4 °F 14.3 °F 3.2 °F 49% 30.33 in 10.0 mi SSE 3.5 mph - N/A   Clear
6:27 PM 17.6 °F - 3.2 °F 53% 30.33 in 10.0 mi Calm Calm - N/A   Clear
6:47 PM 17.6 °F 12.3 °F 3.2 °F 53% 30.33 in 10.0 mi SSE 3.5 mph - N/A   Clear
7:07 PM 17.6 °F 10.7 °F 5.0 °F 58% 30.32 in 10.0 mi South 4.6 mph - N/A   Clear
7:27 PM 17.6 °F 10.7 °F 3.2 °F 53% 30.31 in 10.0 mi South 4.6 mph - N/A   Clear
7:47 PM 19.4 °F 14.3 °F 3.2 °F 49% 30.30 in 10.0 mi South 3.5 mph - N/A   Clear
8:07 PM 19.4 °F 12.8 °F 1.4 °F 46% 30.28 in 10.0 mi South 4.6 mph - N/A   Clear
8:27 PM 23.0 °F 17.0 °F 1.4 °F 39% 30.28 in 10.0 mi South 4.6 mph - N/A   Clear
8:47 PM 23.0 °F 14.7 °F -0.4 °F 36% 30.26 in 10.0 mi SSW 6.9 mph - N/A   Clear
9:07 PM 23.0 °F 14.7 °F -0.4 °F 36% 30.25 in 10.0 mi SSW 6.9 mph - N/A   Clear
9:27 PM 23.0 °F 14.7 °F -0.4 °F 36% 30.24 in 10.0 mi South 6.9 mph - N/A   Clear
9:47 PM 23.0 °F 14.7 °F -0.4 °F 36% 30.23 in 10.0 mi SSW 6.9 mph - N/A   Clear
10:07 PM 23.0 °F 13.9 °F 1.4 °F 39% 30.21 in 10.0 mi South 8.1 mph - N/A   Clear
10:27 PM 24.8 °F 15.3 °F 1.4 °F 36% 30.20 in 10.0 mi SSW 9.2 mph - N/A   Clear
10:47 PM 24.8 °F 16.1 °F -0.4 °F 34% 30.20 in 10.0 mi South 8.1 mph - N/A   Clear
11:07 PM 24.8 °F 16.9 °F 1.4 °F 36% 30.19 in 10.0 mi South 6.9 mph 18.4 mph N/A   Clear
11:27 PM 24.8 °F 15.3 °F 1.4 °F 36% 30.18 in 10.0 mi SSW 9.2 mph - N/A   Clear
11:48 PM 24.8 °F 16.1 °F 3.2 °F 40% 30.17 in 10.0 mi SSW 8.1 mph - N/A   Clear